Location: Cortada de Papelón
(10.0378°N, 66.9528°W)
Time: 16:29:27
(UTC+00:00)

Cosmos 2279 Rocket - Pass Details

Date: 13 June 2024
Orbit: 964 x 977 km, 82.9° (Epoch: 20 July)

Event Time Altitude Azimuth Distance (km) Brightness Sun altitude
Rises 23:44:29 0° 355° (N) 3,653 7.5 -13.1°
Reaches altitude 10° 23:46:59 10° 354° (N) 2,708 6.8 -13.7°
Maximum altitude 23:53:11 83° 268° (W) 982 4.1 -15.0°
Drops below altitude 10° 23:59:26 10° 179° (S) 2,717 6.1 -16.4°
Sets 00:01:56 0° 179° (S) 3,666 6.7 -16.9°
